• In Lithuania
  • List of Countries
  • For 7 days
  • Water Temperature
  • Satellite Maps
  • Weather Map
  • Weather Widgets
  • user-avatar
    Login

    Hourly Weather Port-Loko

    Today, 24 November, Friday

    Time Temperature Precipitation Wind Pressure Humidity
    00:00 +26°C° 0 mm 1 mps 757 mmHg 94%
    01:00 +24°C° 0 mm 0 mps 757 mmHg 95%
    02:00 +24°C° 0 mm 0 mps 757 mmHg 95%
    03:00 +24°C° 0 mm 0 mps 757 mmHg 95%
    04:00 +24°C° 0 mm 0 mps 757 mmHg 95%
    05:00 +24°C° 0 mm 0 mps 757 mmHg 95%
    06:00 +25°C° 0.1 mm 0 mps 757 mmHg 91%
    07:00 +26°C° 0.1 mm 0 mps 757 mmHg 87%
    08:00 +27°C° 0.1 mm 0 mps 757 mmHg 83%
    09:00 +29°C° 0 mm 0 mps 757 mmHg 75%
    10:00 +32°C° 0 mm 1 mps 757 mmHg 67%
    11:00 +34°C° 0 mm 1 mps 757 mmHg 59%
    12:00 +34°C° 0 mm 1 mps 756 mmHg 61%
    13:00 +33°C° 0 mm 1 mps 756 mmHg 63%
    14:00 +34°C° 0 mm 2 mps 755 mmHg 65%
    15:00 +32°C° 0.1 mm 2 mps 755 mmHg 69%
    16:00 +31°C° 0.1 mm 2 mps 755 mmHg 74%
    17:00 +30°C° 0.1 mm 2 mps 755 mmHg 78%
    18:00 +29°C° 0 mm 2 mps 756 mmHg 82%
    19:00 +28°C° 0 mm 2 mps 757 mmHg 85%
    20:00 +27°C° 0 mm 2 mps 757 mmHg 89%
    21:00 +27°C° 0 mm 1 mps 757 mmHg 90%
    22:00 +27°C° 0 mm 1 mps 757 mmHg 91%
    23:00 +27°C° 0 mm 1 mps 758 mmHg 92%

    Tomorrow, 25 November, Saturday

    Time Temperature Precipitation Wind Pressure Humidity
    00:00 +26°C° 0 mm 1 mps 757 mmHg 93%
    01:00 +26°C° 0 mm 1 mps 757 mmHg 94%
    02:00 +26°C° 0 mm 1 mps 756 mmHg 95%
    03:00 +24°C° 0 mm 0 mps 756 mmHg 95%
    04:00 +24°C° 0 mm 0 mps 756 mmHg 95%
    05:00 +24°C° 0 mm 0 mps 756 mmHg 95%
    06:00 +25°C° 0 mm 0 mps 757 mmHg 90%
    07:00 +29°C° 0 mm 1 mps 757 mmHg 85%
    08:00 +30°C° 0 mm 1 mps 758 mmHg 79%
    09:00 +31°C° 0.1 mm 1 mps 757 mmHg 72%
    10:00 +33°C° 0.1 mm 1 mps 757 mmHg 65%
    11:00 +35°C° 0.1 mm 1 mps 757 mmHg 58%
    12:00 +34°C° 0.3 mm 1 mps 756 mmHg 59%
    13:00 +34°C° 0.3 mm 1 mps 756 mmHg 60%
    14:00 +34°C° 0.3 mm 1 mps 755 mmHg 61%
    15:00 +32°C° 0.2 mm 1 mps 755 mmHg 67%
    16:00 +31°C° 0.2 mm 2 mps 755 mmHg 74%
    17:00 +30°C° 0.2 mm 2 mps 755 mmHg 81%
    18:00 +29°C° 0 mm 2 mps 756 mmHg 84%
    19:00 +28°C° 0 mm 2 mps 756 mmHg 87%
    20:00 +27°C° 0 mm 1 mps 757 mmHg 90%
    21:00 +27°C° 0 mm 1 mps 757 mmHg 90%
    22:00 +27°C° 0 mm 1 mps 757 mmHg 91%
    23:00 +27°C° 0 mm 1 mps 758 mmHg 92%

    Day after tomorrow, 26 November, Sunday

    Time Temperature Precipitation Wind Pressure Humidity
    00:00 +26°C° 0 mm 1 mps 757 mmHg 93%
    01:00 +26°C° 0 mm 1 mps 756 mmHg 93%
    02:00 +24°C° 0 mm 0 mps 756 mmHg 94%
    03:00 +24°C° 0 mm 0 mps 756 mmHg 95%
    04:00 +24°C° 0 mm 0 mps 756 mmHg 96%
    05:00 +24°C° 0 mm 0 mps 756 mmHg 96%
    06:00 +25°C° 0 mm 0 mps 757 mmHg 91%
    07:00 +26°C° 0 mm 0 mps 757 mmHg 85%
    08:00 +28°C° 0 mm 0 mps 758 mmHg 80%
    09:00 +29°C° 0 mm 0 mps 758 mmHg 74%
    10:00 +30°C° 0 mm 0 mps 758 mmHg 68%
    11:00 +32°C° 0 mm 0 mps 758 mmHg 62%
    12:00 +33°C° 0.1 mm 1 mps 757 mmHg 62%
    13:00 +33°C° 0.1 mm 1 mps 756 mmHg 62%
    14:00 +34°C° 0.1 mm 2 mps 755 mmHg 62%
    15:00 +32°C° 0.1 mm 2 mps 755 mmHg 67%
    16:00 +31°C° 0.1 mm 2 mps 755 mmHg 72%
    17:00 +30°C° 0.1 mm 2 mps 755 mmHg 77%
    18:00 +29°C° 0.1 mm 1 mps 756 mmHg 81%
    19:00 +28°C° 0.1 mm 1 mps 757 mmHg 84%
    20:00 +27°C° 0.1 mm 1 mps 757 mmHg 88%
    21:00 +27°C° 0 mm 1 mps 757 mmHg 89%
    22:00 +27°C° 0 mm 1 mps 757 mmHg 90%
    23:00 +27°C° 0 mm 1 mps 757 mmHg 91%

    27 November, Monday

    Time Temperature Precipitation Wind Pressure Humidity
    00:00 +27°C° 0 mm 1 mps 757 mmHg 92%
    01:00 +26°C° 0 mm 1 mps 756 mmHg 92%
    02:00 +26°C° 0 mm 1 mps 756 mmHg 93%
    03:00 +24°C° 0 mm 0 mps 756 mmHg 94%
    04:00 +24°C° 0 mm 0 mps 756 mmHg 95%
    05:00 +24°C° 0 mm 0 mps 757 mmHg 95%
    06:00 +25°C° 0.1 mm 0 mps 757 mmHg 90%
    07:00 +26°C° 0.1 mm 0 mps 758 mmHg 85%
    08:00 +28°C° 0.1 mm 0 mps 758 mmHg 80%
    09:00 +30°C° 0.1 mm 0 mps 758 mmHg 72%
    10:00 +33°C° 0.1 mm 1 mps 758 mmHg 64%
    11:00 +35°C° 0.1 mm 1 mps 757 mmHg 56%
    12:00 +35°C° 0 mm 1 mps 757 mmHg 56%
    13:00 +35°C° 0 mm 1 mps 756 mmHg 56%
    14:00 +34°C° 0 mm 1 mps 755 mmHg 55%
    15:00 +33°C° 0.2 mm 1 mps 755 mmHg 62%
    16:00 +32°C° 0.2 mm 1 mps 755 mmHg 69%
    17:00 +30°C° 0.2 mm 2 mps 756 mmHg 75%
    18:00 +29°C° 0 mm 2 mps 756 mmHg 80%
    19:00 +29°C° 0 mm 2 mps 757 mmHg 84%
    20:00 +28°C° 0 mm 2 mps 757 mmHg 88%
    21:00 +27°C° 0 mm 1 mps 757 mmHg 89%
    22:00 +27°C° 0 mm 1 mps 757 mmHg 90%
    23:00 +27°C° 0 mm 1 mps 757 mmHg 91%

    28 November, Tuesday

    Time Temperature Precipitation Wind Pressure Humidity
    00:00 +27°C° 0.1 mm 1 mps 757 mmHg 92%
    01:00 +27°C° 0.1 mm 1 mps 756 mmHg 92%
    02:00 +27°C° 0.1 mm 1 mps 756 mmHg 92%
    03:00 +27°C° 0.2 mm 1 mps 756 mmHg 92%
    04:00 +27°C° 0.2 mm 1 mps 756 mmHg 93%
    05:00 +27°C° 0.2 mm 1 mps 757 mmHg 93%
    06:00 +28°C° 0.1 mm 1 mps 757 mmHg 89%
    07:00 +29°C° 0.1 mm 1 mps 757 mmHg 85%
    08:00 +30°C° 0.1 mm 1 mps 758 mmHg 81%
    09:00 +31°C° 0.1 mm 1 mps 758 mmHg 73%
    10:00 +33°C° 0.1 mm 1 mps 757 mmHg 66%
    11:00 +35°C° 0.1 mm 1 mps 757 mmHg 59%
    12:00 +34°C° 0.2 mm 1 mps 756 mmHg 60%
    13:00 +35°C° 0.2 mm 2 mps 756 mmHg 61%
    14:00 +34°C° 0.2 mm 2 mps 755 mmHg 62%
    15:00 +32°C° 0.6 mm 2 mps 755 mmHg 69%
    16:00 +30°C° 0.6 mm 2 mps 755 mmHg 76%
    17:00 +29°C° 0.6 mm 2 mps 755 mmHg 83%
    18:00 +28°C° 0.2 mm 2 mps 756 mmHg 85%
    19:00 +28°C° 0.2 mm 2 mps 756 mmHg 88%
    20:00 +27°C° 0.2 mm 2 mps 757 mmHg 90%
    21:00 +27°C° 0 mm 1 mps 757 mmHg 91%
    22:00 +27°C° 0 mm 1 mps 757 mmHg 92%
    23:00 +27°C° 0 mm 1 mps 757 mmHg 93%

    29 November, Wednesday

    Time Temperature Precipitation Wind Pressure Humidity
    00:00 +26°C° 0 mm 1 mps 756 mmHg 93%
    01:00 +26°C° 0 mm 1 mps 756 mmHg 93%
    02:00 +26°C° 0 mm 1 mps 756 mmHg 94%
    03:00 +26°C° 0 mm 1 mps 756 mmHg 94%
    04:00 +24°C° 0 mm 0 mps 756 mmHg 94%
    05:00 +24°C° 0 mm 0 mps 756 mmHg 95%
    06:00 +25°C° 0 mm 0 mps 756 mmHg 90%
    07:00 +28°C° 0 mm 1 mps 757 mmHg 85%
    08:00 +29°C° 0 mm 1 mps 757 mmHg 80%
    09:00 +31°C° 0 mm 1 mps 757 mmHg 72%
    10:00 +33°C° 0 mm 1 mps 757 mmHg 64%
    11:00 +35°C° 0 mm 1 mps 757 mmHg 56%
    12:00 +34°C° 0.4 mm 1 mps 756 mmHg 58%
    13:00 +34°C° 0.4 mm 1 mps 755 mmHg 60%
    14:00 +34°C° 0.4 mm 2 mps 755 mmHg 62%
    15:00 +32°C° 0.4 mm 2 mps 755 mmHg 68%
    16:00 +30°C° 0.4 mm 2 mps 755 mmHg 74%
    17:00 +29°C° 0.4 mm 2 mps 755 mmHg 81%
    18:00 +28°C° 0.1 mm 1 mps 756 mmHg 83%
    19:00 +28°C° 0.1 mm 1 mps 756 mmHg 86%
    20:00 +27°C° 0.1 mm 1 mps 757 mmHg 88%
    21:00 +27°C° 0.1 mm 1 mps 757 mmHg 89%
    22:00 +26°C° 0.1 mm 1 mps 757 mmHg 90%
    23:00 +26°C° 0.1 mm 1 mps 757 mmHg 92%
    Show more